• In Uzbekistan
  • List of Countries
  • For 7 days
  • Water Temperature
  • Satellite Maps
  • Weather Map
  • Weather Widgets
  • user-avatar
    Login

    Hourly Weather Armawir

    Today, 17 July, Wednesday

    Time Temperature Precipitation Wind Pressure Humidity
    00:00 +25°C° 0 mm 4 mps 684 mmHg 48%
    01:00 +23°C° 0 mm 4 mps 683 mmHg 51%
    02:00 +22°C° 0 mm 3 mps 683 mmHg 53%
    03:00 +22°C° 0 mm 3 mps 682 mmHg 56%
    04:00 +23°C° 0 mm 2 mps 683 mmHg 56%
    05:00 +24°C° 0 mm 2 mps 683 mmHg 55%
    06:00 +24°C° 0 mm 2 mps 683 mmHg 54%
    07:00 +26°C° 0 mm 2 mps 683 mmHg 49%
    08:00 +28°C° 0 mm 2 mps 683 mmHg 44%
    09:00 +30°C° 0 mm 2 mps 683 mmHg 38%
    10:00 +31°C° 0 mm 2 mps 683 mmHg 34%
    11:00 +34°C° 0 mm 2 mps 683 mmHg 30%
    12:00 +35°C° 0 mm 2 mps 683 mmHg 27%
    13:00 +36°C° 0 mm 2 mps 683 mmHg 25%
    14:00 +37°C° 0 mm 2 mps 683 mmHg 23%
    15:00 +38°C° 0 mm 2 mps 683 mmHg 21%
    16:00 +38°C° 0 mm 2 mps 683 mmHg 21%
    17:00 +38°C° 0 mm 2 mps 683 mmHg 22%
    18:00 +37°C° 0 mm 2 mps 683 mmHg 22%
    19:00 +35°C° 0 mm 2 mps 683 mmHg 28%
    20:00 +31°C° 0 mm 3 mps 683 mmHg 34%
    21:00 +29°C° 0 mm 3 mps 683 mmHg 39%
    22:00 +27°C° 0 mm 2 mps 683 mmHg 43%
    23:00 +26°C° 0 mm 2 mps 683 mmHg 46%

    Tomorrow, 18 July, Thursday

    Time Temperature Precipitation Wind Pressure Humidity
    00:00 +25°C° 0 mm 2 mps 683 mmHg 49%
    01:00 +25°C° 0 mm 1 mps 683 mmHg 52%
    02:00 +24°C° 0 mm 1 mps 683 mmHg 55%
    03:00 +23°C° 0 mm 1 mps 683 mmHg 58%
    04:00 +24°C° 0 mm 1 mps 683 mmHg 57%
    05:00 +24°C° 0 mm 1 mps 683 mmHg 57%
    06:00 +25°C° 0 mm 1 mps 683 mmHg 56%
    07:00 +27°C° 0 mm 1 mps 684 mmHg 49%
    08:00 +29°C° 0 mm 1 mps 684 mmHg 43%
    09:00 +31°C° 0 mm 1 mps 684 mmHg 36%
    10:00 +34°C° 0 mm 2 mps 684 mmHg 31%
    11:00 +36°C° 0 mm 2 mps 684 mmHg 25%
    12:00 +37°C° 0 mm 3 mps 684 mmHg 20%
    13:00 +38°C° 0 mm 3 mps 684 mmHg 18%
    14:00 +39°C° 0 mm 3 mps 684 mmHg 16%
    15:00 +40°C° 0 mm 3 mps 684 mmHg 13%
    16:00 +40°C° 0 mm 3 mps 684 mmHg 14%
    17:00 +40°C° 0 mm 3 mps 684 mmHg 14%
    18:00 +40°C° 0 mm 3 mps 684 mmHg 14%
    19:00 +37°C° 0 mm 3 mps 684 mmHg 18%
    20:00 +34°C° 0 mm 3 mps 684 mmHg 22%
    21:00 +30°C° 0 mm 4 mps 684 mmHg 25%
    22:00 +28°C° 0 mm 4 mps 684 mmHg 26%
    23:00 +27°C° 0 mm 3 mps 685 mmHg 26%

    Day after tomorrow, 19 July, Friday

    Time Temperature Precipitation Wind Pressure Humidity
    00:00 +26°C° 0 mm 3 mps 685 mmHg 27%
    01:00 +25°C° 0 mm 3 mps 685 mmHg 28%
    02:00 +24°C° 0 mm 2 mps 685 mmHg 29%
    03:00 +24°C° 0 mm 2 mps 685 mmHg 31%
    04:00 +24°C° 0 mm 2 mps 685 mmHg 33%
    05:00 +24°C° 0 mm 2 mps 685 mmHg 35%
    06:00 +25°C° 0 mm 3 mps 685 mmHg 37%
    07:00 +27°C° 0 mm 3 mps 686 mmHg 34%
    08:00 +29°C° 0 mm 3 mps 686 mmHg 31%
    09:00 +33°C° 0 mm 3 mps 687 mmHg 29%
    10:00 +34°C° 0 mm 3 mps 687 mmHg 25%
    11:00 +36°C° 0 mm 3 mps 687 mmHg 21%
    12:00 +37°C° 0 mm 2 mps 687 mmHg 17%
    13:00 +38°C° 0 mm 2 mps 687 mmHg 16%
    14:00 +38°C° 0 mm 2 mps 686 mmHg 15%
    15:00 +39°C° 0 mm 2 mps 686 mmHg 13%
    16:00 +38°C° 0 mm 3 mps 686 mmHg 16%
    17:00 +38°C° 0 mm 3 mps 686 mmHg 19%
    18:00 +37°C° 0 mm 3 mps 686 mmHg 22%
    19:00 +35°C° 0 mm 4 mps 687 mmHg 31%
    20:00 +32°C° 0 mm 4 mps 687 mmHg 40%
    21:00 +28°C° 0 mm 5 mps 687 mmHg 49%
    22:00 +27°C° 0 mm 4 mps 687 mmHg 51%
    23:00 +26°C° 0 mm 4 mps 687 mmHg 53%

    20 July, Saturday

    Time Temperature Precipitation Wind Pressure Humidity
    00:00 +25°C° 0 mm 3 mps 688 mmHg 55%
    01:00 +25°C° 0 mm 3 mps 688 mmHg 56%
    02:00 +25°C° 0 mm 3 mps 688 mmHg 57%
    03:00 +24°C° 0 mm 3 mps 688 mmHg 58%
    04:00 +24°C° 0 mm 3 mps 688 mmHg 57%
    05:00 +25°C° 0 mm 3 mps 688 mmHg 56%
    06:00 +25°C° 0 mm 2 mps 688 mmHg 55%
    07:00 +27°C° 0 mm 2 mps 689 mmHg 50%
    08:00 +29°C° 0 mm 2 mps 689 mmHg 46%
    09:00 +31°C° 0 mm 2 mps 689 mmHg 41%
    10:00 +32°C° 0 mm 2 mps 689 mmHg 37%
    11:00 +35°C° 0 mm 2 mps 689 mmHg 33%
    12:00 +37°C° 0 mm 3 mps 689 mmHg 28%
    13:00 +38°C° 0 mm 3 mps 689 mmHg 26%
    14:00 +40°C° 0 mm 4 mps 689 mmHg 24%
    15:00 +41°C° 0 mm 5 mps 689 mmHg 21%
    16:00 +41°C° 0 mm 5 mps 689 mmHg 23%
    17:00 +40°C° 0 mm 5 mps 689 mmHg 25%
    18:00 +39°C° 0 mm 5 mps 689 mmHg 27%
    19:00 +36°C° 0 mm 5 mps 689 mmHg 34%
    20:00 +33°C° 0 mm 4 mps 689 mmHg 42%
    21:00 +29°C° 0 mm 3 mps 689 mmHg 50%
    22:00 +28°C° 0 mm 3 mps 689 mmHg 53%
    23:00 +27°C° 0 mm 2 mps 689 mmHg 56%

    21 July, Sunday

    Time Temperature Precipitation Wind Pressure Humidity
    00:00 +26°C° 0 mm 2 mps 689 mmHg 60%
    01:00 +26°C° 0 mm 2 mps 689 mmHg 61%
    02:00 +25°C° 0 mm 2 mps 689 mmHg 62%
    03:00 +24°C° 0 mm 2 mps 689 mmHg 64%
    04:00 +25°C° 0 mm 2 mps 689 mmHg 62%
    05:00 +25°C° 0 mm 2 mps 689 mmHg 60%
    06:00 +26°C° 0 mm 2 mps 689 mmHg 57%
    07:00 +28°C° 0 mm 2 mps 689 mmHg 51%
    08:00 +30°C° 0 mm 1 mps 689 mmHg 44%
    09:00 +32°C° 0 mm 1 mps 689 mmHg 38%
    10:00 +35°C° 0 mm 2 mps 689 mmHg 33%
    11:00 +37°C° 0 mm 3 mps 689 mmHg 28%
    12:00 +40°C° 0 mm 4 mps 689 mmHg 23%
    13:00 +41°C° 0 mm 4 mps 689 mmHg 20%
    14:00 +42°C° 0 mm 4 mps 688 mmHg 18%
    15:00 +43°C° 0 mm 4 mps 688 mmHg 16%
    16:00 +42°C° 0 mm 4 mps 688 mmHg 18%
    17:00 +42°C° 0 mm 4 mps 688 mmHg 20%
    18:00 +41°C° 0 mm 4 mps 688 mmHg 22%
    19:00 +37°C° 0 mm 4 mps 688 mmHg 29%
    20:00 +34°C° 0 mm 3 mps 688 mmHg 36%
    21:00 +30°C° 0 mm 3 mps 687 mmHg 43%
    22:00 +29°C° 0 mm 3 mps 687 mmHg 46%
    23:00 +28°C° 0 mm 3 mps 687 mmHg 49%

    22 July, Monday

    Time Temperature Precipitation Wind Pressure Humidity
    00:00 +26°C° 0 mm 2 mps 687 mmHg 52%
    01:00 +26°C° 0 mm 2 mps 686 mmHg 53%
    02:00 +25°C° 0 mm 2 mps 686 mmHg 54%
    03:00 +25°C° 0 mm 2 mps 686 mmHg 55%
    04:00 +25°C° 0 mm 2 mps 686 mmHg 54%
    05:00 +26°C° 0 mm 2 mps 686 mmHg 53%
    06:00 +26°C° 0 mm 2 mps 686 mmHg 52%
    07:00 +28°C° 0 mm 2 mps 686 mmHg 45%
    08:00 +31°C° 0 mm 2 mps 686 mmHg 39%
    09:00 +34°C° 0 mm 2 mps 687 mmHg 32%
    10:00 +36°C° 0 mm 2 mps 686 mmHg 28%
    11:00 +38°C° 0 mm 2 mps 686 mmHg 25%
    12:00 +40°C° 0 mm 2 mps 686 mmHg 21%
    13:00 +41°C° 0 mm 2 mps 686 mmHg 19%
    14:00 +42°C° 0 mm 2 mps 686 mmHg 18%
    15:00 +43°C° 0 mm 1 mps 685 mmHg 16%
    16:00 +43°C° 0 mm 3 mps 685 mmHg 19%
    17:00 +42°C° 0 mm 4 mps 685 mmHg 23%
    18:00 +41°C° 0 mm 6 mps 685 mmHg 26%
    19:00 +37°C° 0 mm 5 mps 685 mmHg 33%
    20:00 +33°C° 0 mm 5 mps 685 mmHg 41%
    21:00 +29°C° 0 mm 5 mps 685 mmHg 48%
    22:00 +28°C° 0 mm 4 mps 685 mmHg 49%
    23:00 +27°C° 0 mm 4 mps 685 mmHg 50%
    Show more